Temp
-8 -9 -9 -9 -8 -8 -7 -8 -8 -8 -7 -8 -7 -8 -7 -7 -7 -7 -7 -6 -5 -5 -5 -6 -5 -5 -5 -5 -6 -7 -6 -6 -6 -6 -6 -6 -7 -7 -7 -6 -6 -7 -6 -7
-8 -8 -9 -9 -9 -9 -8 -8 -9 -8 -8 -7 -7 -7 -8 -7 -7 -7 -7 -7 -7 -6 -6 -5 -6 -5 -5 -5 -5 -6 -7 -6 -6 -6 -6 -6 -7 -6 -6 -7 -6 -7 -7 -7
-9 -9 -10 -9 -9 -9 -9 -8 -9 -8 -8 -8 -7 -7 -8 -8 -7 -6 -6 -7 -7 -7 -7 -6 -6 -6 -6 -6 -5 -6 -6 -6 -6 -7 -7 -6 -7 -6 -6 -7 -6 -6 -6 -6
-8 -9 -10 -10 -9 -10 -9 -9 -9 -10 -9 -8 -7 -8 -8 -8 -7 -6 -6 -7 -7 -6 -6 -6 -6 -6 -6 -6 -6 -6 -6 -6 -6 -7 -6 -6 -6 -6 -7 -7 -7 -6 -6 -7
-9 -8 -9 -9 -9 -10 -11 -9 -10 -9 -8 -8 -8 -7 -8 -7 -7 -6 -7 -7 -7 -6 -6 -6 -6 -6 -6 -6 -6 -6 -6 -6 -6 -6 -6 -6 -6 -6 -7 -7 -7 -6 -6 -7
-9 -9 -9 -10 -9 -10 -11 -10 -10 -9 -8 -9 -8 -7 -7 -7 -7 -6 -7 -7 -7 -6 -6 -6 -6 -6 -6 -6 -6 -6 -6 -6 -6 -6 -6 -7 -7 -7 -7 -6 -6 -7 -7 -6
-8 -9 -10 -10 -10 -9 -10 -10 -10 -10 -9 -8 -8 -8 -7 -8 -8 -7 -7 -7 -7 -7 -7 -6 -7 -6 -7 -7 -6 -6 -6 -6 -7 -7 -6 -6 -7 -7 -7 -7 -7 -7 -6 -6
-10 -10 -10 -10 -10 -10 -10 -10 -10 -10 -10 -9 -8 -7 -8 -8 -8 -7 -7 -7 -6 -7 -7 -6 -6 -7 -6 -7 -7 -7 -6 -6 -6 -6 -6 -6 -6 -6 -7 -7 -6 -7 -7 -7
-10 -10 -10 -10 -10 -10 -11 -10 -10 -10 -10 -8 -8 -7 -7 -7 -7 -8 -7 -7 -7 -7 -7 -7 -7 -6 -6 -6 -7 -7 -7 -7 -7 -7 -7 -6 -6 -7 -7 -6 -6 -6 -6 -7
-10 -9 -9 -10 -10 -10 -10 -10 -10 -10 -10 -8 -8 -8 -7 -8 -8 -7 -7 -7 -7 -7 -7 -7 -7 -7 -7 -6 -7 -7 -7 -7 -7 -7 -7 -7 -6 -6 -7 -7 -6 -6 -6 -7
-11 -10 -10 -10 -10 -10 -10 -10 -10 -10 -10 -10 -8 -7 -8 -8 -8 -8 -8 -7 -7 -7 -7 -7 -7 -7 -7 -7 -7 -7 -7 -7 -7 -7 -7 -7 -7 -7 -7 -7 -7 -7 -7 -7
-10 -10 -10 -10 -10 -10 -10 -10 -10 -10 -10 -10 -9 -8 -8 -8 -8 -8 -8 -7 -7 -7 -7 -8 -7 -7 -8 -8 -8 -7 -7 -7 -6 -6 -7 -7 -7 -7 -7 -7 -7 -7 -7 -7
-9 -10 -10 -10 -10 -10 -10 -10 -10 -10 -10 -10 -9 -8 -8 -8 -8 -8 -8 -8 -8 -7 -7 -8 -8 -8 -7 -7 -7 -8 -8 -7 -6 -6 -6 -7 -7 -7 -7 -7 -7 -7 -7 -6
-10 -10 -10 -10 -10 -10 -10 -10 -10 -9 -9 -9 -9 -9 -8 -8 -8 -8 -8 -8 -7 -8 -8 -8 -8 -8 -7 -7 -7 -7 -7 -7 -6 -6 -6 -6 -7 -8 -8 -7 -7 -8 -7 -7
-10 -10 -9 -10 -10 -10 -10 -10 -10 -9 -9 -9 -9 -9 -9 -8 -8 -7 -7 -7 -8 -8 -8 -8 -8 -7 -7 -6 -7 -7 -6 -6 -7 -7 -6 -6 -6 -7 -7 -7 -7 -7 -7 -7
-10 -10 -10 -10 -10 -10 -10 -10 -10 -9 -9 -9 -9 -9 -9 -8 -8 -8 -8 -8 -8 -7 -7 -7 -7 -7 -7 -7 -7 -7 -6 -6 -6 -7 -6 -6 -6 -7 -7 -7 -6 -7 -7 -7
-10 -10 -10 -10 -10 -10 -10 -9 -9 -10 -10 -9 -9 -9 -9 -9 -9 -9 -9 -9 -9 -8 -8 -8 -8 -7 -7 -7 -7 -6 -6 -6 -6 -6 -7 -7 -7 -6 -7 -7 -6 -7 -7 -7
-10 -11 -10 -9 -10 -10 -9 -10 -10 -9 -9 -10 -10 -9 -9 -9 -10 -10 -10 -9 -9 -9 -9 -8 -8 -8 -8 -8 -7 -7 -6 -6 -6 -6 -7 -7 -7 -7 -6 -7 -8 -8 -7 -7
-11 -11 -11 -10 -10 -10 -10 -10 -10 -10 -9 -9 -9 -9 -9 -9 -10 -10 -10 -10 -10 -10 -9 -9 -8 -8 -8 -8 -7 -7 -6 -6 -6 -6 -6 -6 -7 -7 -7 -7 -7 -7 -7 -8
-11 -12 -11 -11 -11 -10 -10 -11 -10 -10 -10 -10 -10 -10 -10 -10 -10 -10 -10 -10 -10 -10 -9 -9 -9 -9 -8 -8 -7 -7 -7 -7 -6 -6 -6 -6 -6 -7 -7 -7 -7 -7 -7 -7
-11 -12 -11 -11 -11 -11 -11 -11 -10 -10 -10 -10 -10 -10 -10 -10 -10 -10 -10 -10 -10 -10 -9 -9 -9 -9 -8 -8 -8 -8 -8 -8 -8 -7 -7 -7 -7 -6 -7 -7 -7 -7 -7 -7
-11 -12 -12 -12 -11 -11 -11 -11 -11 -10 -10 -10 -11 -10 -10 -10 -10 -10 -10 -10 -10 -10 -10 -9 -9 -9 -9 -9 -9 -9 -9 -9 -9 -8 -8 -8 -7 -7 -7 -7 -7 -7 -7 -7
-11 -11 -11 -11 -11 -12 -11 -11 -11 -11 -11 -10 -11 -11 -11 -10 -10 -10 -10 -9 -9 -9 -9 -10 -10 -10 -9 -10 -10 -10 -10 -10 -9 -9 -9 -8 -8 -7 -7 -7 -7 -7 -8 -8
-12 -11 -11 -11 -11 -11 -12 -11 -11 -11 -11 -11 -11 -11 -11 -10 -10 -10 -10 -9 -9 -9 -9 -10 -10 -10 -10 -10 -10 -10 -10 -10 -9 -9 -8 -9 -8 -8 -8 -7 -7 -7 -8 -8
-13 -12 -12 -11 -12 -12 -12 -11 -11 -11 -11 -11 -11 -11 -11 -10 -10 -10 -10 -9 -9 -10 -10 -10 -10 -10 -9 -9 -9 -9 -10 -10 -9 -10 -9 -9 -9 -9 -9 -8 -8 -8 -8 -8
-13 -13 -13 -12 -12 -12 -13 -11 -11 -11 -12 -12 -11 -11 -10 -10 -10 -10 -10 -9 -10 -10 -10 -10 -10 -9 -10 -11 -10 -10 -10 -10 -10 -10 -10 -9 -9 -9 -9 -9 -8 -8 -8 -8
Height
5868 5869 5868 5870 5870 5870 5869 5872 5874 5876 5872 5874 5876 5874 5874 5874 5875 5875 5881 5882 5880 5880 5879 5876 5875 5878 5879 5880 5881 5883 5885 5886 5887 5889 5891 5893 5895 5898 5900 5903 5905 5908 5910 5912
5867 5866 5867 5868 5870 5870 5869 5872 5874 5876 5876 5875 5874 5873 5872 5873 5874 5876 5877 5877 5877 5877 5878 5875 5877 5877 5878 5878 5880 5882 5884 5886 5888 5889 5891 5893 5893 5897 5900 5902 5904 5906 5909 5911
5864 5866 5866 5869 5869 5868 5868 5870 5873 5873 5874 5875 5873 5872 5871 5871 5873 5874 5876 5875 5876 5877 5877 5877 5877 5877 5878 5877 5878 5881 5883 5885 5887 5888 5889 5890 5893 5896 5900 5901 5903 5905 5908 5910
5863 5864 5865 5867 5867 5868 5868 5869 5872 5872 5873 5874 5876 5875 5872 5870 5872 5873 5874 5875 5876 5876 5876 5877 5877 5877 5878 5879 5879 5880 5882 5884 5885 5887 5888 5891 5893 5897 5899 5899 5902 5903 5905 5907
5864 5864 5865 5867 5868 5867 5868 5869 5870 5872 5872 5873 5874 5874 5872 5871 5870 5872 5874 5874 5875 5876 5875 5875 5876 5877 5878 5880 5879 5880 5882 5884 5886 5887 5888 5890 5892 5896 5897 5898 5900 5901 5904 5905
5861 5864 5865 5864 5865 5866 5866 5867 5868 5869 5870 5873 5872 5872 5872 5871 5869 5869 5872 5873 5872 5872 5873 5874 5875 5876 5877 5879 5879 5880 5881 5884 5885 5888 5888 5889 5892 5893 5895 5897 5898 5900 5902 5904
5860 5864 5865 5864 5863 5864 5864 5866 5867 5870 5870 5869 5871 5870 5871 5870 5869 5869 5871 5872 5871 5871 5873 5873 5874 5873 5875 5877 5877 5878 5880 5883 5884 5886 5887 5888 5890 5893 5893 5894 5896 5898 5900 5902
5860 5862 5862 5862 5861 5861 5862 5865 5866 5868 5867 5869 5869 5869 5870 5870 5870 5872 5872 5872 5872 5871 5872 5873 5873 5873 5873 5875 5877 5877 5879 5881 5883 5884 5886 5886 5888 5890 5892 5893 5894 5894 5897 5899
5861 5861 5861 5861 5859 5860 5861 5862 5865 5866 5867 5867 5867 5867 5868 5867 5870 5871 5873 5872 5872 5872 5871 5873 5873 5873 5873 5875 5876 5876 5878 5879 5881 5882 5884 5885 5886 5887 5889 5889 5890 5892 5894 5896
5861 5862 5861 5859 5859 5857 5859 5862 5863 5864 5865 5865 5865 5866 5867 5868 5869 5872 5873 5873 5873 5872 5872 5872 5872 5873 5873 5874 5875 5875 5876 5878 5878 5880 5881 5883 5884 5885 5886 5887 5888 5889 5889 5891
5856 5858 5860 5859 5859 5859 5859 5859 5861 5863 5863 5862 5863 5866 5867 5867 5868 5869 5872 5873 5873 5872 5871 5872 5872 5871 5872 5873 5872 5872 5873 5874 5875 5876 5877 5878 5879 5880 5881 5883 5885 5885 5887 5888
5851 5852 5854 5857 5856 5857 5856 5856 5857 5859 5861 5860 5859 5861 5864 5865 5863 5863 5865 5867 5869 5870 5868 5868 5870 5871 5872 5871 5869 5869 5868 5868 5869 5871 5872 5873 5875 5875 5876 5878 5880 5882 5882 5883
5848 5849 5850 5851 5853 5854 5855 5856 5856 5857 5857 5857 5856 5857 5861 5863 5863 5861 5860 5862 5864 5867 5866 5866 5866 5866 5868 5867 5867 5866 5864 5863 5863 5866 5866 5868 5871 5872 5872 5872 5873 5875 5877 5878
5843 5844 5845 5847 5848 5851 5852 5853 5853 5854 5854 5854 5853 5853 5855 5858 5860 5860 5859 5858 5859 5859 5858 5860 5860 5860 5860 5861 5860 5860 5860 5859 5859 5859 5860 5863 5865 5867 5865 5864 5866 5869 5872 5874
5838 5839 5841 5842 5843 5845 5846 5848 5849 5850 5851 5850 5850 5850 5851 5852 5853 5854 5854 5853 5851 5850 5852 5852 5852 5851 5851 5851 5852 5853 5853 5853 5854 5854 5855 5856 5857 5859 5858 5859 5861 5862 5865 5867
5832 5833 5834 5836 5837 5839 5840 5842 5842 5843 5844 5843 5845 5846 5846 5846 5846 5846 5846 5847 5848 5848 5846 5843 5841 5842 5844 5844 5844 5845 5846 5845 5846 5847 5849 5850 5849 5850 5854 5855 5857 5856 5858 5858
5823 5827 5828 5829 5830 5831 5833 5837 5837 5838 5840 5840 5840 5844 5843 5842 5842 5842 5843 5844 5843 5841 5840 5839 5837 5838 5837 5836 5836 5837 5838 5839 5840 5840 5841 5843 5843 5844 5845 5847 5848 5850 5845 5843
5815 5816 5819 5822 5824 5821 5829 5830 5831 5831 5833 5835 5837 5840 5841 5841 5838 5837 5838 5838 5837 5836 5835 5833 5832 5831 5831 5829 5830 5831 5831 5831 5832 5833 5834 5835 5836 5836 5837 5838 5838 5838 5833 5834
5803 5805 5808 5810 5813 5816 5820 5824 5825 5824 5825 5827 5831 5833 5834 5835 5834 5834 5833 5832 5831 5829 5828 5827 5825 5823 5823 5823 5823 5823 5825 5825 5826 5826 5825 5825 5827 5827 5828 5830 5829 5831 5833 5832
5793 5795 5797 5800 5801 5803 5811 5814 5816 5817 5815 5820 5823 5825 5827 5828 5829 5829 5826 5826 5824 5822 5820 5819 5817 5815 5814 5814 5815 5815 5814 5815 5816 5815 5815 5814 5817 5818 5818 5821 5822 5821 5825 5827
5781 5783 5785 5787 5789 5793 5799 5805 5808 5810 5816 5815 5816 5818 5820 5820 5821 5820 5819 5818 5816 5815 5813 5811 5809 5806 5804 5804 5804 5804 5804 5804 5804 5805 5804 5804 5804 5807 5809 5811 5815 5816 5819 5821
5769 5772 5774 5776 5777 5779 5789 5795 5799 5803 5806 5807 5809 5812 5813 5813 5813 5812 5811 5811 5810 5807 5805 5802 5800 5797 5796 5795 5795 5795 5794 5795 5795 5796 5796 5796 5796 5797 5800 5800 5802 5807 5809 5813
5756 5758 5762 5765 5767 5769 5775 5784 5789 5793 5797 5801 5804 5806 5806 5806 5805 5805 5806 5805 5803 5800 5796 5795 5793 5791 5789 5787 5787 5786 5786 5785 5786 5786 5785 5785 5785 5786 5789 5791 5793 5795 5798 5802
5741 5746 5749 5754 5757 5759 5764 5773 5780 5783 5789 5793 5796 5798 5799 5798 5798 5799 5800 5799 5796 5792 5789 5787 5786 5784 5782 5780 5778 5776 5776 5775 5775 5775 5774 5774 5774 5775 5778 5781 5783 5786 5789 5793
5728 5732 5736 5741 5746 5749 5753 5763 5769 5775 5779 5784 5788 5791 5790 5791 5792 5792 5792 5790 5787 5784 5781 5779 5777 5773 5769 5766 5765 5765 5765 5765 5766 5765 5765 5764 5765 5766 5768 5770 5774 5777 5780 5785
5715 5721 5725 5731 5735 5740 5746 5749 5759 5764 5771 5776 5779 5781 5782 5784 5785 5784 5785 5783 5780 5778 5775 5773 5767 5760 5756 5758 5756 5756 5757 5758 5758 5758 5758 5757 5758 5759 5761 5763 5765 5768 5772 5776
Wind_Speed
7 6 9 3 5 2 11 10 9 6 11 9 4 8 8 7 3 5 6 10 8 6 6 4 4 2 8 11 15 18 17 18 18 16 17 13 13 12 9 8 7 7 4 6
8 9 5 3 6 7 8 10 10 9 10 12 11 10 9 8 8 4 5 1 2 3 7 7 3 3 6 10 11 15 17 19 19 16 16 18 17 14 12 8 7 5 5 6
11 5 4 6 8 11 6 9 5 4 16 10 9 8 6 10 11 9 8 3 5 8 3 5 6 5 4 8 8 9 11 14 17 18 19 24 18 16 12 7 9 8 8 4
11 11 11 11 15 10 7 13 14 7 5 5 3 6 2 9 10 8 10 8 0 5 1 3 5 6 7 10 7 6 8 11 11 13 16 20 18 18 14 14 12 9 7 6
9 11 11 10 12 14 8 2 1 9 9 6 2 6 7 5 7 6 7 7 9 6 3 3 3 6 5 8 11 8 7 11 11 12 13 15 18 15 14 13 11 9 7 5
8 3 9 11 9 14 14 9 8 7 6 3 1 9 4 1 2 8 10 10 7 6 4 4 6 6 6 6 10 11 10 10 9 10 13 17 16 18 14 10 10 8 8 8
8 11 9 7 4 6 16 14 10 9 4 2 5 9 10 3 9 8 7 3 7 8 6 6 8 9 9 10 9 10 13 12 12 10 11 12 14 12 11 10 10 8 6 6
11 5 3 2 4 2 11 14 12 7 5 7 7 8 11 9 8 5 4 6 5 6 8 8 9 7 11 11 10 9 9 9 11 13 13 16 16 14 14 12 11 8 9 10
10 8 6 2 5 10 15 15 17 14 9 6 8 1 12 13 11 4 4 9 10 9 6 5 6 8 10 11 10 11 9 12 12 13 12 14 17 17 15 15 14 12 12 12
8 8 8 7 3 10 18 17 17 15 10 11 8 3 12 12 8 11 5 7 11 9 3 5 5 5 8 11 11 13 9 12 13 14 16 16 16 17 18 18 17 16 15 14
10 11 6 6 6 3 3 12 15 16 15 14 16 11 8 8 7 9 7 3 8 6 4 2 5 4 4 9 11 12 15 17 17 15 18 21 20 19 18 19 20 19 18 18
15 13 14 9 8 8 5 8 17 18 18 21 24 20 14 14 13 13 8 10 6 4 4 2 2 4 3 8 12 16 15 17 19 21 20 24 25 23 22 21 21 20 21 21
17 20 16 16 16 13 13 12 17 21 23 25 26 26 20 17 14 18 20 18 13 14 8 5 6 12 13 12 16 18 21 21 21 20 24 25 22 24 27 27 25 23 24 23
29 27 22 22 22 21 19 19 22 23 22 26 29 25 21 18 20 21 22 23 24 25 21 18 17 21 19 18 18 19 23 27 28 26 22 27 29 28 28 31 30 26 26 27
32 33 25 24 20 21 24 25 24 19 22 27 25 21 20 17 17 14 14 16 20 24 25 25 23 23 21 18 18 20 21 25 31 30 28 27 27 30 30 31 30 30 29 31
34 38 34 28 29 29 28 27 27 25 23 22 29 27 23 18 19 19 17 18 21 23 25 23 23 23 25 21 20 20 22 24 26 28 32 32 32 30 27 30 29 31 33 33
38 38 36 39 34 34 32 24 27 27 27 27 26 22 21 23 23 16 16 21 24 23 22 25 28 27 24 24 23 21 20 24 25 28 29 32 36 34 32 25 34 36 38 34
49 48 41 40 40 43 31 27 28 33 29 30 29 28 25 23 20 17 18 20 21 21 22 24 26 26 22 26 27 24 24 26 28 28 29 32 33 36 35 33 32 38 44 33
47 53 51 49 48 46 39 32 27 31 35 34 32 32 29 18 16 18 20 22 23 24 26 29 30 30 25 26 26 26 24 23 29 30 29 32 31 33 35 35 36 35 32 34
45 49 53 54 52 52 43 38 38 33 35 34 33 33 32 25 26 21 23 24 25 27 29 28 29 31 30 28 28 27 27 27 27 28 28 31 31 33 34 35 36 36 34 31
40 48 54 54 58 59 53 43 44 42 40 33 30 29 26 25 24 24 27 27 28 30 31 28 28 29 30 29 27 26 28 29 29 29 31 32 34 32 34 35 37 37 35 32
44 45 52 57 57 60 49 45 40 36 35 31 31 28 24 29 33 33 34 32 29 30 31 28 28 30 30 30 30 29 30 30 30 30 32 34 33 35 33 35 35 36 37 32
43 50 53 56 62 61 54 46 41 38 37 36 29 27 24 31 32 33 38 34 29 29 27 26 27 28 30 31 32 32 32 33 32 31 29 32 34 34 35 34 36 35 36 33
40 46 50 52 55 59 61 55 50 46 42 36 33 35 30 33 29 31 35 33 29 26 24 26 27 27 29 32 36 37 36 37 36 37 33 29 30 31 31 32 32 36 37 34
37 40 46 50 51 54 55 49 46 47 43 41 37 36 39 34 34 32 33 32 25 22 23 26 29 37 37 37 37 38 39 38 34 28 25 26 25 24 26 27 29 33 35 29
32 36 40 44 48 48 45 49 44 40 47 37 36 35 39 34 35 38 35 29 21 19 21 24 32 25 19 17 19 23 24 25 22 22 20 20 22 25 25 24 27 30 27 27
Wind_Direction
274 245 245 252 217 210 184 184 205 153 134 126 127 70 76 80 107 124 199 242 213 202 197 148 124 213 215 200 200 203 209 216 212 197 195 186 188 194 189 197 160 154 167 202
236 234 252 219 227 169 156 179 185 171 164 132 115 137 96 92 74 119 52 47 204 207 196 170 156 173 222 205 204 211 210 211 215 217 214 212 214 214 197 216 189 161 186 183
228 214 172 211 200 162 136 153 117 151 179 138 126 114 112 139 117 114 116 113 359 193 285 186 165 147 185 190 179 193 206 209 219 226 222 214 217 216 214 199 200 195 188 214
230 203 204 188 174 161 107 119 119 102 147 159 199 66 116 152 146 120 117 120 277 92 161 214 176 161 161 184 196 203 200 191 185 202 204 210 215 206 207 198 207 199 197 225
246 248 237 202 189 165 129 170 142 165 193 175 195 100 138 174 166 179 160 161 178 187 97 195 178 159 168 183 190 199 208 200 204 200 211 211 207 212 217 212 215 216 201 201
240 200 169 156 165 163 178 194 231 199 217 221 141 134 140 54 207 207 168 164 187 179 170 150 218 167 179 207 182 188 198 214 196 201 205 215 219 223 234 215 216 210 227 239
207 162 135 107 78 163 195 194 213 205 233 204 166 147 150 165 22 148 115 120 166 183 198 189 167 205 202 204 199 191 192 212 211 201 194 201 207 200 190 208 222 240 236 226
157 135 125 135 115 224 200 189 193 218 218 227 266 195 182 181 139 127 105 97 84 161 193 210 197 204 200 219 213 198 211 211 229 231 218 199 207 208 210 216 231 238 232 236
179 150 131 183 214 196 184 185 186 205 235 246 230 130 194 170 165 168 122 108 105 116 143 183 225 215 220 213 200 195 237 213 222 225 233 234 223 218 224 224 223 229 230 232
243 224 199 117 74 167 196 190 198 196 233 234 234 140 163 165 233 175 196 116 109 111 138 164 201 215 228 228 218 209 227 229 227 236 235 229 237 234 229 232 231 235 238 229
222 255 240 175 120 55 240 227 216 213 225 260 242 236 209 235 252 204 277 85 115 78 66 149 179 217 253 259 241 239 228 227 231 230 242 240 228 232 239 244 241 241 242 238
216 229 246 240 199 175 223 267 210 218 228 239 256 255 256 252 283 267 268 259 331 343 21 325 59 60 301 251 241 247 242 243 240 233 239 236 239 230 228 237 242 241 239 237
235 245 243 232 249 236 230 241 228 226 231 242 252 269 274 272 253 284 296 308 307 311 332 309 281 287 274 270 246 238 244 246 247 243 242 242 237 238 239 231 232 236 240 236
249 245 233 244 243 247 242 253 243 242 243 243 254 272 286 281 275 280 284 288 294 312 313 297 292 288 277 284 264 258 241 246 251 250 245 241 248 243 243 240 236 235 240 243
250 245 246 230 235 245 255 253 252 259 258 252 250 261 281 282 286 289 289 286 302 305 300 295 291 287 283 287 268 267 253 245 247 253 252 250 248 247 245 247 244 244 246 244
254 244 247 235 229 237 244 248 258 261 266 263 253 263 268 297 303 298 302 298 294 292 295 296 298 295 292 284 252 260 258 255 253 252 251 254 254 256 246 244 250 254 251 249
248 241 247 247 242 247 241 254 258 259 252 263 258 260 277 298 306 299 302 305 298 300 300 293 289 287 294 291 280 271 265 263 256 254 252 251 254 257 255 246 239 250 251 239
243 251 247 244 244 247 253 263 256 259 254 253 257 264 272 291 298 280 298 304 304 304 300 293 291 291 291 279 275 273 273 258 249 249 249 250 253 254 255 255 256 258 268 272
240 245 247 246 249 256 251 258 268 261 265 263 261 268 272 271 289 278 288 293 301 307 307 298 294 293 285 271 268 271 268 261 246 251 254 255 253 254 256 256 260 264 269 278
235 239 245 249 252 257 263 260 262 257 258 261 269 271 271 268 275 276 279 288 296 304 304 295 290 285 281 275 266 265 268 267 265 265 264 260 255 253 254 254 257 261 266 270
233 235 240 247 251 255 259 255 257 259 272 266 261 268 267 270 269 268 282 288 293 300 302 299 291 283 282 281 280 276 274 273 271 267 265 264 261 253 249 249 250 255 258 262
230 232 235 239 246 251 250 255 259 261 262 262 253 255 258 272 270 273 275 277 286 297 298 295 288 284 281 278 278 278 276 275 274 269 265 262 259 255 251 251 252 251 254 254
237 231 234 239 238 245 248 245 246 255 258 257 246 240 263 286 276 277 274 277 288 291 292 289 284 283 282 279 275 274 272 275 273 278 271 264 259 256 252 249 249 251 252 251
237 234 233 235 241 246 248 249 248 249 257 245 239 241 269 281 276 276 276 277 281 285 287 290 291 289 283 281 273 271 270 271 275 280 273 266 261 257 252 251 246 243 247 246
237 233 232 233 237 242 248 249 248 248 244 233 236 253 276 281 264 273 279 281 284 286 291 294 295 290 284 276 272 269 268 271 275 274 269 267 254 246 255 248 244 240 245 246
228 233 233 231 233 240 245 248 243 248 244 254 253 260 270 281 267 272 280 279 280 283 289 295 311 294 277 273 273 274 272 265 263 265 265 257 256 245 247 250 246 242 236 237